COSMOS 568

Satellite information

Favourite Embed

Satellite Type and Status

PAYLOADIN ORBIT

Key statistics

Satellite COSMOS 568 at a glance.

Uptime

18962

Days in orbit

Revolutions

≈ 12.6

Per day

Orbit

LEO

Low Earth Orbit

Inclination

74.0

Latest

Satellite identification and parameters

Extended collection of information and parameters for COSMOS 568.

Object identification

Identified? True

Debris? False

Object name: COSMOS 568

International designator: 1973-037E

Object number (NORAD): 6679

Object ID (CCSDS): 6679

Country: COMMONWEALTH OF INDEPENDENT STATES (CIS)

Current information (Y/N): Y

RCS size: MEDIUM

Orbital parameters

Period: 114.381 minutes

Inclination: 74.0189 deg

SMA: 7805.439 km

Apoapsis: 1480.156 km

Periapsis: 1374.452 km

RAAN: 71.1168 deg

Eccentricy: 0.0067712

Argument of periapsis: 319.0792 deg

Mean anomaly: 101.1622 deg

Mean motion: 12.58944997 rev/day

Mean motion (dot): -0.00000015 rev/day2

B* drag term: 0.000010285 1/REarth

Two-line elements (TLE)

Creation date: May 8, 2025, 3:01 a.m.

Reference frame: TEME

Reference center: EARTH

Epoch: May 7, 2025, 8:38 p.m. UTC

TLE line 0: 0 COSMOS 568

TLE line 1: 1 06679U 73037E 25127.85989172 -.00000015 00000-0 10285-4 0 9991

TLE line 2: 2 06679 74.0189 71.1168 0067712 319.0792 101.1622 12.58944997385756

Live tracking on map

Real-time ground track for satellite COSMOS 568.

In-orbit conjunctions

There are no conjunctions computed for COSMOS 568, at the moment. Check back to stay up to date, as we update our databases every day.

Go to all conjunctions

Associated space launch

Military communications satellites

COSMOS 568 was lifted into orbit during the mission ‘Kosmos-3M | Strela-1M 41-48’, on board a Kosmos-3M space rocket.

The launch took place on June 8, 1973, 3:50 p.m. from 132/1 (132L).

For more information about the launch, click the button.

Launch to space Kosmos-3M | Strela-1M 41-48
Kosmos-3M | Strela-1M 41-48

Agency: N/A

Status: Launch Successful

Launch date: June 8, 1973, 3:50 p.m. UTC

Rocket: Kosmos-3M

Launch pad: 132/1 (132L)

Location: Plesetsk Cosmodrome, Russian Federation

...

Latest news about this satellite

There are no fresh news available about this satellite. Check back as we update our databases every day.


Newsletter sign-up

Weekly statistics, charts and insights to help you stay on top of the space industry.